IW9DKU-3 Weather Reports


time (UTC)temp
C
wind
direction
speed
KPH
gust
KPH
rain 1hr
cm
rain 24hr
cm
rain mn
cm
humidity
%
barometer
mb
20260507103655 21 0.0 0.0 0.00 0.00 0.00 53 1022.1
20260507101652 21 0.0 0.0 0.00 0.00 0.00 52 1022.2
20260507095648 21 0.0 0.0 0.00 0.00 0.00 52 1022.4
20260507093644 21 0.0 0.0 0.00 0.00 0.00 53 1022.5
20260507091640 21 0.0 0.0 0.00 0.00 0.00 54 1022.4
20260507083633 21 0.0 0.0 0.00 0.00 0.00 54 1022.4
20260507081629 20 0.0 0.0 0.00 0.00 0.00 54 1022.1
20260507075625 20 0.0 0.0 0.00 0.00 0.00 56 1022.2
20260507073622 20 0.0 0.0 0.00 0.00 0.00 57 1022.3
20260507071618 20 0.0 0.0 0.00 0.00 0.00 60 1022.3
20260507065614 20 0.0 0.0 0.00 0.00 0.00 60 1022.4
20260507063610 20 0.0 0.0 0.00 0.00 0.00 61 1022.2
20260507062554 19 0.0 0.0 0.00 0.00 0.00 61 1022.1
20260507061607 19 0.0 0.0 0.00 0.00 0.00 61 1022.1
20260507055603 19 0.0 0.0 0.00 0.00 0.00 62 1022.3
20260507053559 19 0.0 0.0 0.00 0.00 0.00 61 1022.4
20260507053149 19 0.0 0.0 0.00 0.00 0.00 57 1021.6
20260507051555 19 0.0 0.0 0.00 0.00 0.00 61 1021.9
20260507045552 19 0.0 0.0 0.00 0.00 0.00 61 1021.8
20260507043548 19 0.0 0.0 0.00 0.00 0.00 58 1021.5
20260507041544 19 0.0 0.0 0.00 0.00 0.00 57 1021.6
20260507035540 19 0.0 0.0 0.00 0.00 0.00 56 1021.6
20260507033536 19 0.0 0.0 0.00 0.00 0.00 56 1021.9
20260507031533 19 0.0 0.0 0.00 0.00 0.00 56 1021.9
20260507025529 19 0.0 0.0 0.00 0.00 0.00 55 1021.8
20260507023525 19 0.0 0.0 0.00 0.00 0.00 52 1021.6
20260507021521 19 0.0 0.0 0.00 0.00 0.00 56 1021.4
20260507015518 19 0.0 0.0 0.00 0.00 0.00 55 1021.4
20260507013514 19 0.0 0.0 0.00 0.00 0.00 54 1021.8
20260507011510 19 0.0 0.0 0.00 0.00 0.00 59 1021.9
20260507005506 19 0.0 0.0 0.00 0.00 0.00 60 1021.8
20260507003503 19 0.0 0.0 0.00 0.00 0.00 60 1021.9
20260507001459 19 0.0 0.0 0.00 0.00 0.00 61 1022.2
20260506235455 19 0.0 0.0 0.00 0.00 0.00 61 1022.3
20260506233451 19 0.0 0.0 0.00 0.00 0.00 60 1022.3
20260506231448 20 0.0 0.0 0.00 0.00 0.00 59 1022.4
20260506225444 20 0.0 0.0 0.00 0.00 0.00 59 1022.5
20260506223440 20 0.0 0.0 0.00 0.00 0.00 58 1022.5
20260506221436 20 0.0 0.0 0.00 0.00 0.00 59 1022.6
20260506215432 20 0.0 0.0 0.00 0.00 0.00 60 1022.6
20260506213429 20 0.0 0.0 0.00 0.00 0.00 59 1022.7
20260506211425 20 0.0 0.0 0.00 0.00 0.00 59 1022.8
20260506205421 20 0.0 0.0 0.00 0.00 0.00 62 1022.4
20260506203417 20 0.0 0.0 0.00 0.00 0.00 62 1022.2
20260506201414 20 0.0 0.0 0.00 0.00 0.00 61 1021.8
20260506195410 20 0.0 0.0 0.00 0.00 0.00 62 1022.2
20260506193406 20 0.0 0.0 0.00 0.00 0.00 63 1022.9
20260506191403 20 0.0 0.0 0.00 0.00 0.00 62 1023.0
20260506185648 20 0.0 0.0 0.00 0.00 0.00 62 1022.9
20260506185359 20 0.0 0.0 0.00 0.00 0.00 62 1022.9
20260506183355 20 0.0 0.0 0.00 0.00 0.00 61 1022.9
20260506181351 21 0.0 0.0 0.00 0.00 0.00 61 1023.0
20260506175347 21 0.0 0.0 0.00 0.00 0.00 61 1022.9
20260506173344 21 0.0 0.0 0.00 0.00 0.00 61 1022.6
20260506171340 21 0.0 0.0 0.00 0.00 0.00 61 1022.4
20260506165336 21 0.0 0.0 0.00 0.00 0.00 61 1022.6
20260506163332 21 0.0 0.0 0.00 0.00 0.00 61 1022.7
20260506161328 21 0.0 0.0 0.00 0.00 0.00 61 1022.9
20260506155324 21 0.0 0.0 0.00 0.00 0.00 60 1022.9
20260506153321 21 0.0 0.0 0.00 0.00 0.00 60 1022.9
20260506151317 21 0.0 0.0 0.00 0.00 0.00 59 1023.0
20260506145313 21 0.0 0.0 0.00 0.00 0.00 59 1023.2
20260506143750 21 0.0 0.0 0.00 0.00 0.00 59 1023.0
20260506135302 21 0.0 0.0 0.00 0.00 0.00 59 1022.9
20260506133258 22 0.0 0.0 0.00 0.00 0.00 59 1023.2
20260506131254 22 0.0 0.0 0.00 0.00 0.00 59 1023.2
20260506123247 22 0.0 0.0 0.00 0.00 0.00 58 1023.5
20260506121243 21 0.0 0.0 0.00 0.00 0.00 59 1023.8
20260506115239 21 0.0 0.0 0.00 0.00 0.00 59 1023.6
20260506113235 21 0.0 0.0 0.00 0.00 0.00 59 1023.7
20260506111232 21 0.0 0.0 0.00 0.00 0.00 59 1023.6
20260506105228 21 0.0 0.0 0.00 0.00 0.00 60 1023.7